Riverside, CA

1:01 AM PDT on May 25, 2017 (GMT -0700)
Riverside Municipal

Weather History for KRAL - October, 2015

Change the Weather History Date:

Friday, October 2, 2015

  Actual Average Record
Temperature  
Mean Temperature 74 °F 72 °F  
Max Temperature 86 °F 86 °F 108 °F (1980)
Min Temperature 62 °F 59 °F 39 °F (1950)
Degree Days  
Heating Degree Days 0 0  
Month to date heating degree days 0 0  
Since 1 July heating degree days 0 2  
Cooling Degree Days 9 7  
Month to date cooling degree days 22 15  
Year to date cooling degree days 2100 1607  
Growing Degree Days 24 (Base 50)    
Moisture  
Dew Point 56 °F    
Average Humidity 56    
Maximum Humidity 84    
Minimum Humidity 27    
Precipitation  
Precipitation 0.00 in 0.00 in 0.32 in (1916)
Month to date precipitation 0.00 0.00  
Year to date precipitation 6.34 9.59  
Sea Level Pressure  
Sea Level Pressure 29.84 in    
Wind  
Wind Speed 4 mph (SW)    
Max Wind Speed 14 mph    
Max Gust Speed 21 mph    
Visibility 10 miles    
Events      
T = Trace of Precipitation, MM = Missing Value Source: NWS Daily Summary

Daily Weather History Graph

Daily Weather History Graph

Search for Another Location

Airport or City:

Trip Planner

Search our weather history database for the weather conditions in past years. The results will help you decide how hot, cold, wet, or windy it might be!

Date:

Astronomy

Oct. 02, 2015 Rise Set
Actual Time 6:44 AM PDT 6:32 PM PDT
Civil Twilight 6:19 AM PDT 6:57 PM PDT
Nautical Twilight 5:50 AM PDT 7:26 PM PDT
Astronomical Twilight 5:21 AM PDT 7:55 PM PDT
Moon 10:28 PM PDT (10/2) 11:42 AM PDT (10/2)
Length of Visible Light 12h 37m
Length of Day
11h 48m
Waning Gibbous, 72% of the Moon is Illuminated
Oct 2
Waning Gibbous
Oct 4
Last Quarter
Oct 12
New
Oct 20
First Quarter
Oct 27
Full

Hourly Weather History & Observations

Time (PDT) Temp. Heat Index Dew Point Humidity Pressure Visibility Wind Dir Wind Speed Gust Speed Precip Events Conditions
12:53 AM 69.1 °F - 57.9 °F 68% 29.89 in 10.0 mi Calm Calm - N/A   Clear
1:53 AM 66.9 °F - 57.9 °F 73% 29.89 in 10.0 mi Calm Calm - N/A   Clear
2:53 AM 64.9 °F - 57.0 °F 75% 29.89 in 10.0 mi Calm Calm - N/A   Clear
3:53 AM 64.0 °F - 57.0 °F 78% 29.89 in 10.0 mi SE 3.5 mph - N/A   Clear
4:53 AM 63.0 °F - 57.0 °F 81% 29.88 in 10.0 mi Calm Calm - N/A   Clear
5:53 AM 63.0 °F - 57.0 °F 81% 29.89 in 10.0 mi Calm Calm - N/A   Clear
6:53 AM 63.0 °F - 57.9 °F 84% 29.90 in 10.0 mi Calm Calm - N/A   Clear
7:53 AM 64.9 °F - 59.0 °F 81% 29.91 in 10.0 mi East 4.6 mph - N/A   Clear
8:53 AM 69.1 °F - 60.1 °F 73% 29.91 in 10.0 mi ESE 4.6 mph - N/A   Clear
9:53 AM 72.0 °F - 59.0 °F 64% 29.89 in 10.0 mi Calm Calm - N/A   Clear
10:53 AM 75.0 °F - 57.9 °F 55% 29.87 in 10.0 mi Variable 4.6 mph - N/A   Clear
11:53 AM 79.0 °F - 54.0 °F 42% 29.84 in 10.0 mi Variable 5.8 mph - N/A   Clear
12:53 PM 82.9 °F - 52.0 °F 34% 29.81 in 10.0 mi Variable 3.5 mph - N/A   Partly Cloudy
1:53 PM 86.0 °F - 48.0 °F 27% 29.78 in 10.0 mi Variable 5.8 mph - N/A   Partly Cloudy
2:53 PM 86.0 °F - 51.1 °F 30% 29.76 in 10.0 mi WSW 13.8 mph 18.4 mph N/A   Partly Cloudy
3:53 PM 84.0 °F 83.0 °F 55.9 °F 38% 29.74 in 10.0 mi West 10.4 mph 20.7 mph N/A   Partly Cloudy
4:53 PM 81.0 °F 81.0 °F 57.0 °F 44% 29.74 in 10.0 mi West 11.5 mph - N/A   Clear
5:53 PM 78.1 °F - 57.9 °F 50% 29.74 in 10.0 mi West 11.5 mph - N/A   Clear
6:53 PM 73.9 °F - 57.9 °F 57% 29.75 in 10.0 mi West 9.2 mph - N/A   Clear